Location: Edemissen
(51.7689°N, 9.8634°E)
Time: 07:54:12
(UTC+00:00)

Cosmos 2297 Rocket - Pass Details

Date: 15 June 2024
Orbit: 838 x 844 km, 71.0° (Epoch: 23 July)

Event Time Altitude Azimuth Distance (km) Brightness Sun altitude
Exits shadow 00:24:41 11° 236° (SW) 2,417 4.1 -13.6°
Maximum altitude 00:30:00 47° 309° (NW) 1,106 3.0 -13.4°
Drops below altitude 10° 00:35:27 10° 23° (NNE) 2,468 6.1 -13.2°
Sets 00:38:01 0° 30° (NNE) 3,407 7.1 -13.0°
